Hourly Data Report for May 15, 2012

All times are specified in Local Standard Time (LST). Add 1 hour to adjust for Daylight Saving Time where and when it is observed.

OTTAWA INTL A
ONTARIO

45°19'00.000" N
75°40'00.000" W
114.90 m
6106001
71628
YOW

Download Data

Hourly Data (May 2012)
Hourly Data Report for May 15, 2012
Temp Definition
°C
Dew Point Temp Definition
°C
Rel Hum Definition
%
Wind Dir Definition
10's deg

Wind Spd Definition
km/h
Visibility Definition
km
Stn Press Definition
kPa
Hmdx Definition


Wind Chill Definition


Weather Definition


TIME
00:00 Legend Double Dagger 14.0 11.7 86 19 8 10.0 100.27     LegendNANA
01:00 Legend Double Dagger 12.6 11.2 91 18 8 10.0 100.24     Mainly Clear
02:00 Legend Double Dagger 12.8 11.6 92 18 8 10.0 100.22     LegendNANA
03:00 Legend Double Dagger 12.3 11.5 95 19 8 10.0 100.21     LegendNANA
04:00 Legend Double Dagger 12.1 11.5 96 18 9 10.0 100.20     Mostly Cloudy
05:00 Legend Double Dagger 12.1 11.8 98 19 9 10.0 100.20     LegendNANA
06:00 Legend Double Dagger 13.2 12.7 97 17 8 10.0 100.21     LegendNANA
07:00 Legend Double Dagger 16.0 14.4 90 22 10 10.0 100.21     Mainly Clear
08:00 Legend Double Dagger 17.7 14.8 83 20 12 10.0 100.21     LegendNANA
09:00 Legend Double Dagger 19.1 15.4 79 18 9 10.0 100.17     LegendNANA
10:00 Legend Double Dagger 20.1 16.2 78 19 6 10.0 100.17 25   Mostly Cloudy
11:00 Legend Double Dagger 21.6 14.4 63 17 8 10.0 100.12 25   LegendNANA
12:00 Legend Double Dagger 22.9 14.9 60 16 9 10.0 100.04 27   LegendNANA
13:00 Legend Double Dagger 22.6 14.3 59 14 11 10.0 99.99 26   Mostly Cloudy
14:00 Legend Double Dagger 22.6 14.6 60 19 15 10.0 99.93 26   LegendNANA
15:00 Legend Double Dagger 23.0 14.2 57 17 10 10.0 99.84 26   LegendNANA
16:00 Legend Double Dagger 24.2 14.5 54 18 15 10.0 99.80 28   Mostly Cloudy
17:00 Legend Double Dagger 24.2 14.7 55 17 14 10.0 99.77 28   LegendNANA
18:00 Legend Double Dagger 21.4 14.9 66 14 11 10.0 99.72 25   LegendNANA
19:00 Legend Double Dagger 20.3 15.0 71 14 15 10.0 99.72     Mainly Clear
20:00 Legend Double Dagger 18.0 14.6 80 14 13 10.0 99.70     LegendNANA
21:00 Legend Double Dagger 16.4 13.0 80 17 8 10.0 99.74     LegendNANA
22:00 Legend Double Dagger 15.8 11.8 77 17 8 10.0 99.75     Clear
23:00 Legend Double Dagger 14.9 11.3 79 18 9 10.0 99.74     LegendNANA

Notes on Data Quality.

Legend

  • E = Estimated
  • M = Missing
  • NA = Not Available
  • ‡ = Partner data that is not subject to review by the National Climate Archives
Date modified: